Flag for Greenland Weather past 2 weeks in Qaanaaq, Greenland

Now
41 °F

Overcast.


Feels Like: 41 °F
Forecast: N/A
Wind: No wind

Location: Thule A. B.

Current Time: Aug 28, 2015 at 9:04:47 PM

Latest Report: Aug 28, 2015 at 7:58 PM


Visibility: N/A

Pressure: 29.56 "Hg

Humidity: 66%

Dew point: 30 °F

Location of QaanaaqLocation

Historic Weather in Qaanaaq — Graph

°F

Qaanaaq temperature yesterday

Maximum temperature yesterday: 41 °F (at 1:58 PM)
Minimum temperature yesterday: 28 °F (at 3:58 AM)
Average temperature yesterday: 36 °F

Past Weeks' High & Low Weather Summary

 TemperatureHumidityPressure
High54 °F (Aug 16, 1:58 PM)100% (Aug 22, 2:58 AM)30.21 "Hg (Aug 22, 2:58 AM)
Low28 °F (Aug 27, 3:58 AM)33% (Aug 27, 4:58 PM)29.49 "Hg (Aug 17, 5:58 AM)
Average41 °F69%29.93 "Hg
* Reported Aug 13 6:58 PM — Aug 28 6:58 PM, Qaanaaq, Weather by CustomWeather, © 2015

Note: Actual official high and low records may vary slightly from our data, if they occured in-between our weather recording intervals... More about our weather records

Advertising

Qaanaaq weather history for previous 24 hours

 ConditionsComfort  
Time TempWeatherWind HumidityBarometerVisibility
6:58 PM
Fri, Aug 28
41 °FPassing clouds.6 mph61%29.57 "HgN/A
5:58 PM43 °FSunny.6 mph46%29.56 "HgN/A
4:58 PM41 °FPartly sunny.5 mph39%29.56 "HgN/A
3:58 PM41 °FScattered clouds.2 mph53%29.56 "HgN/A
2:58 PM39 °FSunny.3 mph48%29.55 "HgN/A
1:58 PM41 °FSunny.6 mph53%29.55 "HgN/A
12:58 PM39 °FSunny.1 mph48%29.57 "HgN/A
11:58 AM37 °FSunny.No wind52%29.58 "HgN/A
10:58 AM37 °FSunny.No wind52%29.59 "HgN/A
9:58 AM36 °FSunny.No wind60%29.60 "HgN/A
8:58 AM36 °FSunny.2 mph65%29.62 "HgN/A
7:58 AM34 °FPassing clouds.No wind70%29.63 "HgN/A
6:58 AM32 °FClear.2 mph75%29.65 "HgN/A
5:58 AM32 °FClear.6 mph69%29.68 "HgN/A
4:58 AM32 °FClear.6 mph75%29.71 "HgN/A
3:58 AM32 °FClear.6 mph75%29.73 "HgN/A
2:58 AM32 °FClear.6 mph75%29.76 "HgN/A
1:58 AM34 °FClear.5 mph70%29.79 "HgN/A
12:58 AM34 °FSunny.7 mph70%29.83 "HgN/A
11:58 PM
Thu, Aug 27
36 °FSunny.3 mph65%29.84 "HgN/A
10:58 PM36 °FSunny.No wind65%29.86 "HgN/A
9:58 PM37 °FSunny.1 mph65%29.88 "HgN/A
Weather by CustomWeather, © 2015

See weather overviewHow to use our weather pages